This is the latest recevied weather packets stored in our database for station/object JE0GNV-13. If no packets are shown the sender has not sent any weather packets the latest 10 day(s).
| Time | Temp. | Humidity | Pressure | Rain* | Wind** | Luminosity | Snow |
|---|---|---|---|---|---|---|---|
| 1777573200 | 9.44° C | 96% | 1009.7 hPa | 2.54 mm | - | - | - |
| 1777572600 | 9.44° C | 96% | 1009.8 hPa | 2.54 mm | - | - | - |
| 1777572002 | 9.44° C | 95% | 1010.4 hPa | 2.29 mm | - | - | - |
| 1777571402 | 10° C | 95% | 1010.6 hPa | 2.03 mm | - | - | - |
| 1777570802 | 10° C | 95% | 1010.6 hPa | 1.27 mm | - | - | - |
| 1777570202 | 10° C | 95% | 1010.6 hPa | 1.02 mm | - | - | - |
| 1777569600 | 10° C | 95% | 1010.6 hPa | 0.51 mm | - | - | - |
| 1777569002 | 10° C | 95% | 1010.6 hPa | 0.25 mm | - | - | - |
| 1777568402 | 10° C | 94% | 1010.7 hPa | 0.25 mm | - | - | - |
| 1777567802 | 10° C | 94% | 1010.6 hPa | 0 mm | - | - | - |
| 1777567202 | 10° C | 94% | 1010.6 hPa | 0 mm | - | - | - |
| 1777566602 | 10° C | 94% | 1010.8 hPa | 0 mm | - | - | - |
| 1777566001 | 10° C | 94% | 1011 hPa | 0 mm | - | - | - |
| 1777565402 | 10° C | 94% | 1011.1 hPa | 0 mm | - | - | - |
| 1777564802 | 10° C | 94% | 1011.2 hPa | 0 mm | - | - | - |
| 1777564201 | 10° C | 93% | 1011.3 hPa | 0 mm | - | - | - |
| 1777563601 | 10° C | 93% | 1011.3 hPa | 0 mm | - | - | - |
| 1777563001 | 10° C | 93% | 1011.9 hPa | 0 mm | - | - | - |
| 1777562402 | 10° C | 93% | 1012.1 hPa | 0 mm | - | - | - |
| 1777561802 | 10° C | 92% | 1012.2 hPa | 0 mm | - | - | - |
| 1777561202 | 10° C | 92% | 1012.3 hPa | 0 mm | - | - | - |
| 1777560602 | 10° C | 91% | 1012.3 hPa | 0 mm | - | - | - |
| 1777560002 | 10° C | 92% | 1012.6 hPa | 0 mm | - | - | - |
| 1777559401 | 10° C | 92% | 1012.8 hPa | 0 mm | - | - | - |
| 1777558802 | 10° C | 92% | 1013 hPa | 0 mm | - | - | - |
* Rain latest hour (hover to see other rain measurements)
** Current wind speed in m/s (hover to see current wind gust speed)